Showing default

NUSAT-42 (M WONENBURGER), 56966

Orbit data source: Space-Track

NUSAT-42 (M WONENBURGER), 56966 is a payload satellite owned by URUGUS S.A. (AR) in SSO that was launched on Mon, 12 Jun 2023 UTC via an FALCON 9 launch vehicle from the Air Force Western Test Range (AFWTR). Payload-class satellites include a variety of spacecraft equipped with specific instruments for various scientific and technological missions. These include communications satellites like Starlink; space stations such as the ISS; scientific satellites like the Hubble; Earth observation satellites from companies like Planet Labs, Umbra, and HawkEye 360; GPS; miniature CubeSats for education and research; and military/defense satellites.

Loading next visibility...
Identifier
56966, 2023-084AL
Orbit
SSO
Last TLE update
8 hours ago
Origin
Manufacturer
URUGUS S.A.
Mission
Operational Commercial Imaging
Bus & Motor
NEWSAT V, Unknown motor
Mass
41.5 kg wet, 38.5 kg dry
Launch date (UTC)
2023-06-12 (2 years ago)
Launch vehicle
FALCON 9
Launch site
Air Force Western Test Range (AFWTR)
Object type
Payload
Rocket body
Debris
Shape & HBR
Box, 0.813 m
Radar Cross Section
0.542 m², Medium (>0.1 m² and < 1m²)

Expand to show TLE details & history

TLE from 8 hours ago
0 NUSAT-42 (M WONENBURGER)
1 56966U 23084AL  25181.90591786  .00009408  00000-0  32928-3 0  9999
2 56966  97.5310 311.5831 0009207  72.3262 287.8982 15.29693693114127
Epoch: 2025-06-30T21:44Z
TLE epoch observation values (Epoch: 2025-06-30T21:44:31.303Z)
Latitude
-0.00006°
Longitude
66.24367°
Altitude
477.892 km
Speed
7.628 km/s
True Right ascension
20h 46m 19s
True Declination
0° 00' 00"
Sunlit
Object was in full shadow at epoch
Visualization orbit readout
Latitude
62.93309°
Longitude
-98.49459°
Altitude
483.086 km
Speed
7.632 km/s
Apparent Right ascension
07h 15m 55s
Apparent Declination
16° 06' 57"
Sunlit
Object is in daylight
Visualization observer readout
Local Sidereal Time
17:43:33
Azimuth
334.218° NNW
Elevation
-29.981°
Doppler factor
1
Orbital elements
Apogee altitude
479.994 km
Perigee altitude
467.377 km
Semi-major axis
6,851.823 km
Eccentricity
0.00092
Inclination
97.531°
RAAN
311.5831°
Arg. of periapsis
72.3262°
True anomaly
Unknown
Mean anomaly
287.8982°
Eccentric anomaly
Unknown
Mean motion
3.82678 °/min
Orbital period
94.07 mins
BSTAR
0.00032928
Loading maneuver chart data...
Loading SW <> Apogee altitude chart data...
Loading historical data...
Loading historical data...
Loading historical data...
Loading historical data...
Loading historical data...
Loading historical data...
Loading historical data...

NUSAT-42 (M WONENBURGER) Visibility forecast

Observer location: undefined°, undefined°

Span
Click to sort rows by Start time (UTC) header in descending order
Start Az.
Max El. time (UTC)
Max El. Az.
Max El.
End time (UTC)
End Az.
5 mins2025-07-01 08:51:49.535Z179.197° S2025-07-01 08:53:49.535Z213.196° SW39.719°2025-07-01 08:56:49.535Z338.779° N
5 mins2025-07-01 21:51:49.535Z350.052° N2025-07-01 21:53:49.535Z277.815° WNW36.666°2025-07-01 21:56:49.535Z211.697° SW
|